Weather History for KAUW - March, 2015

Change the Weather History Date:

Sunday, March 29, 2015

  Actual Average Record
Temperature  
Mean Temperature 35 °F 36 °F  
Max Temperature 39 °F 46 °F 80 °F (1910)
Min Temperature 30 °F 26 °F -1 °F (1964)
Degree Days  
Heating Degree Days 30 29  
Month to date heating degree days 990 1027  
Since 1 July heating degree days 7570 7163  
Cooling Degree Days 0 0  
Month to date cooling degree days 0 0  
Year to date cooling degree days 0 0  
Moisture  
Dew Point 28 °F    
Average Humidity 69    
Maximum Humidity 92    
Minimum Humidity 45    
Precipitation  
Precipitation 0.12 in 0.07 in 1.12 in (1951)
Month to date precipitation 0.66 1.63  
Year to date precipitation 1.41 3.57  
Snow  
Snow T in 0.20 in 13.00 in (1924)
Month to date snowfall 4.5 9.6  
Since 1 July snowfall 48.5 54.9  
Snow Depth 0.00 in    
Sea Level Pressure  
Sea Level Pressure 29.70 in    
Wind  
Wind Speed 14 mph (SW)    
Max Wind Speed 26 mph    
Max Gust Speed 35 mph    
Visibility 6 miles    
Events Rain , Snow    
T = Trace of Precipitation, MM = Missing Value Source: NWS Daily Summary

Daily Weather History Graph

Daily Weather History Graph

Search for Another Location

Airport or City:

Trip Planner

Search our weather history database for the weather conditions in past years. The results will help you decide how hot, cold, wet, or windy it might be!

Date:

Astronomy

Mar. 29, 2015 Rise Set
Actual Time 6:45 AM CDT 7:22 PM CDT
Civil Twilight 6:15 AM CDT 7:51 PM CDT
Nautical Twilight 5:40 AM CDT 8:26 PM CDT
Astronomical Twilight 5:04 AM CDT 9:03 PM CDT
Moon 2:05 PM CDT (3/29) 3:44 AM CDT (3/29)
Length of Visible Light 13h 35m
Length of Day
12h 36m
Waxing Gibbous, 72% of the Moon is Illuminated
Mar 29
Waxing Gibbous
Apr 4
Full
Apr 11
Last Quarter
Apr 18
New
Apr 25
First Quarter

Hourly Weather History & Observations

Time (CDT) Temp. Windchill Dew Point Humidity Pressure Visibility Wind Dir Wind Speed Gust Speed Precip Events Conditions
12:54 AM 30.9 °F 21.7 °F 15.1 °F 52% 30.09 in 10.0 mi South 11.5 mph - N/A   Clear
1:54 AM 30.9 °F 22.2 °F 15.1 °F 52% 30.04 in 10.0 mi SSW 10.4 mph 19.6 mph N/A   Clear
2:54 AM 32.0 °F 21.2 °F 14.0 °F 48% 30.02 in 10.0 mi SSW 16.1 mph 24.2 mph N/A   Clear
3:54 AM 30.9 °F 21.2 °F 14.0 °F 50% 29.99 in 10.0 mi South 12.7 mph - N/A   Clear
4:54 AM 30.9 °F 21.7 °F 15.1 °F 52% 29.96 in 10.0 mi South 11.5 mph - N/A   Clear
5:54 AM 30.0 °F 20.0 °F 15.1 °F 54% 29.94 in 10.0 mi South 12.7 mph - N/A   Clear
6:54 AM 30.0 °F 19.5 °F 16.0 °F 56% 29.88 in 10.0 mi South 13.8 mph 23.0 mph N/A   Clear
7:54 AM 30.9 °F 19.4 °F 17.1 °F 57% 29.83 in 10.0 mi South 17.3 mph - N/A   Mostly Cloudy
8:35 AM 30.0 °F 17.9 °F 21.9 °F 72% 29.72 in 6.0 mi South 18.4 mph 26.5 mph 0.01 in Rain Light Freezing Rain
8:54 AM 30.0 °F 18.7 °F 24.1 °F 79% 29.77 in 6.0 mi South 16.1 mph - 0.04 in Rain Light Freezing Rain
9:03 AM 30.0 °F 17.5 °F 25.0 °F 82% 29.71 in 5.0 mi South 19.6 mph 25.3 mph 0.01 in   Overcast
9:18 AM 30.0 °F 18.7 °F 25.0 °F 82% 29.69 in 4.0 mi South 16.1 mph 23.0 mph 0.04 in Rain Light Freezing Rain
9:42 AM 30.0 °F 19.1 °F 26.1 °F 85% 29.68 in 10.0 mi South 15.0 mph - 0.04 in   Overcast
9:52 AM 30.2 °F 19.3 °F 26.6 °F 86% 29.67 in 9.0 mi South 15.0 mph - 0.04 in   Overcast
9:54 AM 30.0 °F 19.5 °F 26.1 °F 85% 29.73 in 8.0 mi South 13.8 mph - 0.04 in   Overcast
10:19 AM 30.0 °F 18.7 °F 27.0 °F 88% 29.66 in 4.0 mi South 16.1 mph 24.2 mph 0.00 in Rain Light Freezing Rain
10:38 AM 30.9 °F 19.8 °F 28.0 °F 89% 29.65 in 2.5 mi South 16.1 mph - 0.00 in Rain Light Freezing Rain
10:50 AM 30.2 °F 19.3 °F 28.4 °F 93% 29.64 in 2.0 mi South 15.0 mph 28.8 mph 0.00 in Snow Light Snow
10:54 AM 30.9 °F 19.8 °F 28.9 °F 92% 29.69 in 2.0 mi South 16.1 mph 24.2 mph 0.00 in Snow Light Snow
11:08 AM 30.9 °F 19.1 °F 28.9 °F 92% 29.62 in 3.0 mi South 18.4 mph 27.6 mph 0.00 in   Overcast
11:54 AM 32.0 °F 20.5 °F 30.0 °F 92% 29.63 in 4.0 mi SSW 18.4 mph 26.5 mph 0.00 in   Overcast
12:35 PM 32.0 °F 21.2 °F 30.9 °F 96% 29.56 in 2.5 mi SSW 16.1 mph 25.3 mph 0.00 in   Overcast
12:45 PM 32.0 °F 21.2 °F 30.9 °F 96% 29.56 in 1.5 mi SSW 16.1 mph - 0.00 in   Overcast
12:54 PM 33.1 °F 22.2 °F 30.9 °F 92% 29.60 in 1.5 mi SSW 17.3 mph - 0.00 in Snow Light Snow
1:02 PM 33.1 °F 22.2 °F 30.9 °F 92% 29.55 in 3.0 mi SSW 17.3 mph 25.3 mph 0.00 in Rain Light Rain
1:44 PM 33.1 °F 22.6 °F 32.0 °F 96% 29.53 in 1.8 mi SW 16.1 mph - 0.00 in Rain Light Rain
1:54 PM 34.0 °F 23.8 °F 32.0 °F 92% 29.57 in 1.5 mi SW 16.1 mph 25.3 mph 0.00 in Rain Light Rain
2:01 PM 34.0 °F 24.2 °F 32.0 °F 92% 29.52 in 1.8 mi SW 15.0 mph 25.3 mph 0.00 in Rain Light Rain
2:11 PM 34.0 °F 25.0 °F 33.1 °F 96% 29.52 in 2.0 mi SW 12.7 mph - 0.00 in Snow Light Snow
2:20 PM 34.0 °F 25.0 °F 33.1 °F 96% 29.51 in 1.8 mi SW 12.7 mph - 0.00 in   Overcast
2:54 PM 35.1 °F 26.4 °F 34.0 °F 96% 29.55 in 1.8 mi SW 12.7 mph - 0.01 in   Overcast
3:08 PM 36.0 °F 27.5 °F 34.0 °F 93% 29.50 in 2.5 mi SW 12.7 mph - 0.00 in Rain Light Rain
3:19 PM 37.0 °F 28.5 °F 35.1 °F 93% 29.50 in 4.0 mi WSW 13.8 mph 21.9 mph 0.00 in Rain Light Rain
3:42 PM 39.0 °F 30.3 °F 36.0 °F 89% 29.52 in 6.0 mi West 16.1 mph 25.3 mph 0.02 in Rain Light Rain
3:54 PM 39.0 °F 29.6 °F 37.0 °F 93% 29.57 in 8.0 mi WNW 18.4 mph 25.3 mph 0.02 in Rain Light Rain
4:21 PM 37.9 °F 28.2 °F 35.1 °F 89% 29.55 in 9.0 mi WNW 18.4 mph 31.1 mph 0.00 in Rain Light Rain
4:54 PM 37.9 °F 28.2 °F 33.1 °F 83% 29.63 in 10.0 mi NW 18.4 mph 31.1 mph 0.00 in   Overcast
5:54 PM 39.0 °F 29.6 °F 33.1 °F 79% 29.68 in 10.0 mi WNW 18.4 mph 27.6 mph 0.00 in   Overcast
6:07 PM 39.0 °F 30.6 °F 33.1 °F 79% 29.64 in 10.0 mi WNW 15.0 mph 26.5 mph N/A   Overcast
6:17 PM 39.0 °F 29.9 °F 33.1 °F 79% 29.65 in 10.0 mi WNW 17.3 mph 24.2 mph N/A   Overcast
6:54 PM 39.0 °F 28.8 °F 33.1 °F 79% 29.73 in 10.0 mi NW 21.9 mph 33.4 mph 0.00 in   Overcast
7:09 PM 39.0 °F 29.9 °F 32.0 °F 76% 29.69 in 10.0 mi WNW 17.3 mph 27.6 mph N/A   Overcast
7:54 PM 39.0 °F 31.8 °F 30.9 °F 73% 29.78 in 10.0 mi WNW 11.5 mph 23.0 mph N/A   Overcast
8:54 PM 37.9 °F 30.9 °F 30.9 °F 76% 29.82 in 10.0 mi WNW 10.4 mph - 0.00 in   Overcast
9:54 PM 37.9 °F 31.5 °F 30.9 °F 76% 29.85 in 10.0 mi WNW 9.2 mph - N/A   Overcast
10:54 PM 37.9 °F 32.7 °F 30.9 °F 76% 29.87 in 10.0 mi WNW 6.9 mph - N/A   Overcast
11:54 PM 36.0 °F 29.0 °F 30.0 °F 79% 29.88 in 10.0 mi West 9.2 mph - N/A   Overcast